Portada
METAR-TAF:

METAR-TAF

Aeropuertos :

Logan County Airport

Lincoln, Illinois, Estados Unidos

latitud: 40-09-31N, longitud: 089-20-06W, altitud: 182 m

Observación

El informe se hizo hace 26 minutos, a las 08:35 UTC
Viento calma
Temperatura 23°C
Humedad 83%
Presión 1015 hPa
Visibilidad: 16.1 km
Cielo despejado

METAR: KAAA 060835Z AUTO 00000KT 10SM CLR 23/20 A2997 RMK AO2 T02250202

Hora: 04:01 (09:01 UTC)


TAF: falta

Observaciones y pronósticos meteorológicos de más de 4000 aeropuertos (mensajes METAR y TAF).

Los puntos amarillos y rojos representan las estaciones disponibles.

Ponga el ratón en el punto deseado para ver el nombre de la estación.

Haga clic para ver las observaciones y los pronósticos meteorológicos.

Para cambiar el mapa : haga clic en los botones verdes con una cruz de color negro para hacer un zoom, en el botón verde con un guión para alejar o en las flechas verdes para mapas adyacentes.


METAR-TAF: